MysteryTwister C3
NUMBER OF ACTIVE MEMBERS:

7955
Follow us: Facebook Twitter
 



Level I Challenges (75)

Page 1 of the challenges in Level I, ordered by date posted (the most recent appear first).

A hidden word — Part 2

[theofanidis-06] - 58 users already solved this challenge, 31 are working on it.
 
 
 

A friend of yours has given you the following text which contains only X and Y characters. He claims that this text contains a codeword. Can you find it?
Read more...

Click here to get to the corresponding forum topic to share your opinion.
Click here to download the challenge.

Author: This email address is being protected from spambots. You need JavaScript enabled to view it.
Published on: 2015-04-16 16:47
Maximum number of attempts for this challenge: 15

All successful users of this challenge

Rank User (#58) Achieved points (Global score) y-m-d - h:m:s

H. Lautenschlager (helmi) 200 (18162) 2015-04-16 18:29:39
Armin Krauss (argh) 200 (149821) 2015-04-16 18:35:30
Kurt Gebauer (Yokozuna) 200 (120839) 2015-04-16 19:50:36
Sebastian Slupina (Grandwizard) 200 (6901) 2015-04-16 20:13:45
#5 E.T (Ertheb) 200 (54872) 2015-04-16 21:27:32
#6 Viktor (Veselovský) 200 (109843) 2015-04-16 22:24:12
#7 HolgerK (HolgerK) 200 (23648) 2015-04-16 22:37:10
#8 Rainer Zufall (kiekuk) 200 (42198) 2015-04-16 22:46:37
#9 Michael Möller (michaelm) 200 (117401) 2015-04-17 08:04:29
#10 Andreas Frerichs (Ossili) 200 (33026) 2015-04-17 13:34:36
#11 Karl Schutt (günter) 150 (34469) 2015-04-17 21:04:53
#12 Bart den Hartog (Bart13) 150 (116412) 2015-04-17 22:31:09
#13 Hans Joachim Girulat (joregi) 125 (28462) 2015-04-19 19:26:47
#14 Peter (Garnet) 120 (14033) 2015-04-20 16:59:40
#15 Justin Weiler (HotSauce) 117 (1923) 2015-04-21 22:32:32
#16 sokrates (sokrates) 117 (2639) 2015-04-22 14:51:20
#17 Bernhard Gruber (bgr) 113 (22631) 2015-04-24 15:39:29
#18 Dusan (xxdradus) 108 (40134) 2015-04-28 09:28:58
#19 Hans Peter (hanspeter) 107 (48115) 2015-05-01 10:28:41
#20 Kim H. S. (tenchijin) 104 (21386) 2015-05-08 21:52:30
#21 Ulrich Dorobeck (Papageno) 104 (3422) 2015-05-10 21:46:36
#22 Axel J (Äxel) 104 (906) 2015-05-13 20:36:42
#23 partamier (yann) 104 (5435) 2015-05-14 11:06:19
#24 Stefan Noll (MisterTwister) 102 (438) 2015-06-14 20:28:13
#25 Erik (Erox) 101 (20365) 2015-07-15 16:05:41
#26 Tradecraft (Tradecraft) 101 (5540) 2015-07-16 17:45:50
#27 Alain (Integral) 101 (198642) 2015-07-31 13:57:50
#28 Em Doulgerakis (Greko) 101 (109970) 2015-08-27 14:31:46
#29 zahir mohsen moradi (ariobarzan) 101 (99757) 2015-09-02 16:51:42
#30 Roeland (roelieproelie) 101 (403) 2015-09-02 21:01:48
#31 Joerg G. (SnifferMaster) 101 (17225) 2015-09-17 12:35:16
#32 Stepan (m1sterx) 101 (19165) 2015-10-07 15:46:14
#33 Robert (rm) 101 (56012) 2015-10-09 00:57:05
#34 Steph (Tartaglia) 101 (2010) 2015-10-27 17:49:40
#35 Szabó Zoltán (szabo.z87) 100 (47990) 2015-11-03 17:08:54
#36 Victoria Fehr (Rika) 100 (1472) 2015-11-12 12:25:05
#37 Noah (Fridax2000) 100 (755) 2015-11-15 10:18:32
#38 Julia Bernotat (El Greco ) 100 (81129) 2015-11-18 20:14:44
#39 Martin (martinbucher) 100 (22726) 2015-12-17 06:28:41
#40 S (Zyphe) 100 (8324) 2015-12-18 13:26:18
#41 Marc (rcll0891) 100 (17460) 2015-12-27 21:01:29
#42 Dominik M. (Sgt. Pepper) 100 (32672) 2016-01-05 18:31:47
#43 KW (qwer*) 100 (13753) 2016-01-05 21:36:02
#44 Nofre Tete (noffi) 100 (10522) 2016-01-19 23:04:05
#45 Michael (soilfront) 100 (2617) 2016-01-24 12:51:18
#46 Defekt75 (Defekt75) 100 (4325) 2016-02-22 22:56:20
#47 Ines (bufo01) 100 (3612) 2016-03-28 15:39:53
#48 Steve (Samacian) 100 (23704) 2016-04-27 07:31:17
#49 Norbert Biermann (Norbert) 100 (40024) 2016-07-15 17:09:07
#50 Rene (Renederberserker) 100 (800) 2016-08-04 15:08:34
#51 Alain Collignon (vexilla72) 100 (48599) 2016-09-30 18:28:46
#52 Daniel Walder (ibex) 100 (3716) 2016-10-21 14:22:10
#53 Tristan1473 (Tristan1473) 100 (17553) 2016-11-09 14:40:09
#54 Simon Jakob (simon.jakob) 100 (18714) 2016-11-17 10:47:04
#55 zuben c3 (zuben-c3) 100 (15014) 2016-11-23 10:17:37
#56 Steffen (stmue) 100 (2810) 2016-12-16 14:20:56
#57 Robert Kosten (Robert Kosten) 100 (2724) 2017-01-02 17:40:55
#58 chris (c2) 100 (40203) 2017-03-26 22:07:24
You must be logged in to solve the challenge
Pages [1] 1 Show All  
 
 
powered by the CrypTool project  CrypTool

 

   +++    [02:05 - 27.03.2017] Sgt. Pepper solved the Level II challenge 'Enigma Part 1'    +++    [23:07 - 26.03.2017] Sgt. Pepper solved the Level I challenge 'Heartbleed — Part 2'    +++    [23:03 - 26.03.2017] guisouzafb solved the Level I challenge 'A hidden word'    +++    [22:57 - 26.03.2017] guisouzafb solved the Level I challenge 'Beaver Code'    +++    [22:07 - 26.03.2017] c2 solved the Level I challenge 'A hidden word — Part 2'    +++